Year,Month,Day,Hour,Minute,Value (Times are PST for insolation in W/m^2)
2020,08,02,00,00,0.00
2020,08,02,00,01,0.00
2020,08,02,00,02,0.00
2020,08,02,00,03,0.00
2020,08,02,00,04,0.00
2020,08,02,00,05,0.00
2020,08,02,00,06,0.00
2020,08,02,00,07,0.00
2020,08,02,00,08,0.00
2020,08,02,00,09,0.00
2020,08,02,00,10,0.00
2020,08,02,00,11,0.00
2020,08,02,00,12,0.00
2020,08,02,00,13,0.00
2020,08,02,00,14,0.00
2020,08,02,00,15,0.00
2020,08,02,00,16,0.00
2020,08,02,00,17,0.00
2020,08,02,00,18,0.00
2020,08,02,00,19,0.00
2020,08,02,00,20,0.00
2020,08,02,00,21,0.00
2020,08,02,00,22,0.00
2020,08,02,00,23,0.00
2020,08,02,00,24,0.00
2020,08,02,00,25,0.00
2020,08,02,00,26,0.00
2020,08,02,00,27,0.00
2020,08,02,00,28,0.00
2020,08,02,00,29,0.00
2020,08,02,00,30,0.00
2020,08,02,00,31,0.00
2020,08,02,00,32,0.00
2020,08,02,00,33,0.00
2020,08,02,00,34,0.00
2020,08,02,00,35,0.00
2020,08,02,00,36,0.00
2020,08,02,00,37,0.00
2020,08,02,00,38,0.00
2020,08,02,00,39,0.00
2020,08,02,00,40,0.00
2020,08,02,00,41,0.00
2020,08,02,00,42,0.00
2020,08,02,00,43,0.00
2020,08,02,00,44,0.00
2020,08,02,00,45,0.00
2020,08,02,00,46,0.00
2020,08,02,00,47,0.00
2020,08,02,00,48,0.00
2020,08,02,00,49,0.00
2020,08,02,00,50,0.00
2020,08,02,00,51,0.00
2020,08,02,00,52,0.00
2020,08,02,00,53,0.00
2020,08,02,00,54,0.00
2020,08,02,00,55,0.00
2020,08,02,00,56,0.00
2020,08,02,00,57,0.00
2020,08,02,00,58,0.00
2020,08,02,00,59,0.00
2020,08,02,01,00,0.00
2020,08,02,01,01,0.00
2020,08,02,01,02,0.00
2020,08,02,01,03,0.00
2020,08,02,01,04,0.00
2020,08,02,01,05,0.00
2020,08,02,01,06,0.00
2020,08,02,01,07,0.00
2020,08,02,01,08,0.00
2020,08,02,01,09,0.00
2020,08,02,01,10,0.00
2020,08,02,01,11,0.00
2020,08,02,01,12,0.00
2020,08,02,01,13,0.00
2020,08,02,01,14,0.00
2020,08,02,01,15,0.00
2020,08,02,01,16,0.00
2020,08,02,01,17,0.00
2020,08,02,01,18,0.00
2020,08,02,01,19,0.00
2020,08,02,01,20,0.00
2020,08,02,01,21,0.00
2020,08,02,01,22,0.00
2020,08,02,01,23,0.00
2020,08,02,01,24,0.00
2020,08,02,01,25,0.00
2020,08,02,01,26,0.00
2020,08,02,01,27,0.00
2020,08,02,01,28,0.00
2020,08,02,01,29,0.00
2020,08,02,01,30,0.00
2020,08,02,01,31,0.00
2020,08,02,01,32,0.00
2020,08,02,01,33,0.00
2020,08,02,01,34,0.00
2020,08,02,01,35,0.00
2020,08,02,01,36,0.00
2020,08,02,01,37,0.00
2020,08,02,01,38,0.00
2020,08,02,01,39,0.00
2020,08,02,01,40,0.00
2020,08,02,01,41,0.00
2020,08,02,01,42,0.00
2020,08,02,01,43,0.00
2020,08,02,01,44,0.00
2020,08,02,01,45,0.00
2020,08,02,01,46,0.00
2020,08,02,01,47,0.00
2020,08,02,01,48,0.00
2020,08,02,01,49,0.00
2020,08,02,01,50,0.00
2020,08,02,01,51,0.00
2020,08,02,01,52,0.00
2020,08,02,01,53,0.00
2020,08,02,01,54,0.00
2020,08,02,01,55,0.00
2020,08,02,01,56,0.00
2020,08,02,01,57,0.00
2020,08,02,01,58,0.00
2020,08,02,01,59,0.00
2020,08,02,02,00,0.00
2020,08,02,02,01,0.00
2020,08,02,02,02,0.00
2020,08,02,02,03,0.00
2020,08,02,02,04,0.00
2020,08,02,02,05,0.00
2020,08,02,02,06,0.00
2020,08,02,02,07,0.00
2020,08,02,02,08,0.00
2020,08,02,02,09,0.00
2020,08,02,02,10,0.00
2020,08,02,02,11,0.00
2020,08,02,02,12,0.00
2020,08,02,02,13,0.00
2020,08,02,02,14,0.00
2020,08,02,02,15,0.00
2020,08,02,02,16,0.00
2020,08,02,02,17,0.00
2020,08,02,02,18,0.00
2020,08,02,02,19,0.00
2020,08,02,02,20,0.00
2020,08,02,02,21,0.00
2020,08,02,02,22,0.00
2020,08,02,02,23,0.00
2020,08,02,02,24,0.00
2020,08,02,02,25,0.00
2020,08,02,02,26,0.00
2020,08,02,02,27,0.00
2020,08,02,02,28,0.00
2020,08,02,02,29,0.00
2020,08,02,02,30,0.00
2020,08,02,02,31,0.00
2020,08,02,02,32,0.00
2020,08,02,02,33,0.00
2020,08,02,02,34,0.00
2020,08,02,02,35,0.00
2020,08,02,02,36,0.00
2020,08,02,02,37,0.00
2020,08,02,02,38,0.00
2020,08,02,02,39,0.00
2020,08,02,02,40,0.00
2020,08,02,02,41,0.00
2020,08,02,02,42,0.00
2020,08,02,02,43,0.00
2020,08,02,02,44,0.00
2020,08,02,02,45,0.00
2020,08,02,02,46,0.00
2020,08,02,02,47,0.00
2020,08,02,02,48,0.00
2020,08,02,02,49,0.00
2020,08,02,02,50,0.00
2020,08,02,02,51,0.00
2020,08,02,02,52,0.00
2020,08,02,02,53,0.00
2020,08,02,02,54,0.00
2020,08,02,02,55,0.00
2020,08,02,02,56,0.00
2020,08,02,02,57,0.00
2020,08,02,02,58,0.00
2020,08,02,02,59,0.00
2020,08,02,03,00,0.00
2020,08,02,03,01,0.00
2020,08,02,03,02,0.00
2020,08,02,03,03,0.00
2020,08,02,03,04,0.00
2020,08,02,03,05,0.00
2020,08,02,03,06,0.00
2020,08,02,03,07,0.00
2020,08,02,03,08,0.00
2020,08,02,03,09,0.00
2020,08,02,03,10,0.00
2020,08,02,03,11,0.00
2020,08,02,03,12,0.00
2020,08,02,03,13,0.00
2020,08,02,03,14,0.00
2020,08,02,03,15,0.00
2020,08,02,03,16,0.00
2020,08,02,03,17,0.00
2020,08,02,03,18,0.00
2020,08,02,03,19,0.00
2020,08,02,03,20,0.00
2020,08,02,03,21,0.00
2020,08,02,03,22,0.00
2020,08,02,03,23,0.00
2020,08,02,03,24,0.00
2020,08,02,03,25,0.00
2020,08,02,03,26,0.00
2020,08,02,03,27,0.00
2020,08,02,03,28,0.00
2020,08,02,03,29,0.00
2020,08,02,03,30,0.00
2020,08,02,03,31,0.00
2020,08,02,03,32,0.00
2020,08,02,03,33,0.00
2020,08,02,03,34,0.00
2020,08,02,03,35,0.00
2020,08,02,03,36,0.00
2020,08,02,03,37,0.00
2020,08,02,03,38,0.00
2020,08,02,03,39,0.00
2020,08,02,03,40,0.00
2020,08,02,03,41,0.00
2020,08,02,03,42,0.00
2020,08,02,03,43,0.00
2020,08,02,03,44,0.00
2020,08,02,03,45,0.00
2020,08,02,03,46,0.00
2020,08,02,03,47,0.00
2020,08,02,03,48,0.00
2020,08,02,03,49,0.00
2020,08,02,03,50,0.00
2020,08,02,03,51,0.00
2020,08,02,03,52,0.00
2020,08,02,03,53,0.00
2020,08,02,03,54,0.00
2020,08,02,03,55,0.00
2020,08,02,03,56,0.00
2020,08,02,03,57,0.00
2020,08,02,03,58,0.00
2020,08,02,03,59,0.00
2020,08,02,04,00,0.00
2020,08,02,04,01,0.00
2020,08,02,04,02,0.00
2020,08,02,04,03,0.00
2020,08,02,04,04,0.00
2020,08,02,04,05,0.00
2020,08,02,04,06,0.00
2020,08,02,04,07,0.00
2020,08,02,04,08,0.00
2020,08,02,04,09,0.00
2020,08,02,04,10,0.00
2020,08,02,04,11,0.00
2020,08,02,04,12,0.00
2020,08,02,04,13,0.00
2020,08,02,04,14,0.00
2020,08,02,04,15,0.00
2020,08,02,04,16,0.00
2020,08,02,04,17,0.00
2020,08,02,04,18,0.00
2020,08,02,04,19,0.00
2020,08,02,04,20,0.00
2020,08,02,04,21,0.00
2020,08,02,04,22,0.00
2020,08,02,04,23,0.00
2020,08,02,04,24,0.00
2020,08,02,04,25,0.00
2020,08,02,04,26,0.00
2020,08,02,04,27,0.00
2020,08,02,04,28,0.00
2020,08,02,04,29,0.00
2020,08,02,04,30,0.00
2020,08,02,04,31,0.00
2020,08,02,04,32,0.00
2020,08,02,04,33,0.00
2020,08,02,04,34,0.00
2020,08,02,04,35,0.00
2020,08,02,04,36,0.00
2020,08,02,04,37,0.00
2020,08,02,04,38,0.00
2020,08,02,04,39,0.00
2020,08,02,04,40,0.00
2020,08,02,04,41,0.00
2020,08,02,04,42,0.00
2020,08,02,04,43,0.00
2020,08,02,04,44,0.00
2020,08,02,04,45,0.00
2020,08,02,04,46,0.00
2020,08,02,04,47,0.00
2020,08,02,04,48,0.00
2020,08,02,04,49,0.00
2020,08,02,04,50,0.00
2020,08,02,04,51,0.00
2020,08,02,04,52,0.00
2020,08,02,04,53,0.00
2020,08,02,04,54,0.00
2020,08,02,04,55,0.00
2020,08,02,04,56,0.00
2020,08,02,04,57,0.00
2020,08,02,04,58,0.00
2020,08,02,04,59,0.00
2020,08,02,05,00,0.00
2020,08,02,05,01,0.00
2020,08,02,05,02,0.00
2020,08,02,05,03,0.00
2020,08,02,05,04,0.00
2020,08,02,05,05,0.00
2020,08,02,05,06,0.00
2020,08,02,05,07,0.00
2020,08,02,05,08,0.00
2020,08,02,05,09,0.00
2020,08,02,05,10,0.00
2020,08,02,05,11,0.00
2020,08,02,05,12,0.00
2020,08,02,05,13,0.00
2020,08,02,05,14,0.00
2020,08,02,05,15,0.00
2020,08,02,05,16,0.00
2020,08,02,05,17,0.00
2020,08,02,05,18,0.00
2020,08,02,05,19,0.00
2020,08,02,05,20,0.00
2020,08,02,05,21,0.00
2020,08,02,05,22,0.00
2020,08,02,05,23,0.00
2020,08,02,05,24,0.00
2020,08,02,05,25,0.00
2020,08,02,05,26,0.00
2020,08,02,05,27,0.00
2020,08,02,05,28,0.00
2020,08,02,05,29,0.00
2020,08,02,05,30,0.00
2020,08,02,05,31,0.00
2020,08,02,05,32,0.00
2020,08,02,05,33,0.00
2020,08,02,05,34,0.00
2020,08,02,05,35,0.00
2020,08,02,05,36,0.00
2020,08,02,05,37,0.00
2020,08,02,05,38,0.00
2020,08,02,05,39,0.00
2020,08,02,05,40,0.00
2020,08,02,05,41,0.00
2020,08,02,05,42,0.00
2020,08,02,05,43,0.00
2020,08,02,05,44,0.00
2020,08,02,05,45,0.00
2020,08,02,05,46,0.00
2020,08,02,05,47,0.00
2020,08,02,05,48,0.00
2020,08,02,05,49,0.00
2020,08,02,05,50,0.00
2020,08,02,05,51,0.00
2020,08,02,05,52,0.00
2020,08,02,05,53,0.00
2020,08,02,05,54,3.20
2020,08,02,05,55,5.00
2020,08,02,05,56,5.00
2020,08,02,05,57,5.00
2020,08,02,05,58,5.50
2020,08,02,05,59,7.00
2020,08,02,06,00,7.00
2020,08,02,06,01,7.00
2020,08,02,06,02,7.00
2020,08,02,06,03,8.70
2020,08,02,06,04,9.00
2020,08,02,06,05,9.00
2020,08,02,06,06,9.00
2020,08,02,06,07,10.10
2020,08,02,06,08,11.60
2020,08,02,06,09,13.50
2020,08,02,06,10,15.80
2020,08,02,06,11,15.70
2020,08,02,06,12,13.50
2020,08,02,06,13,12.00
2020,08,02,06,14,12.00
2020,08,02,06,15,13.30
2020,08,02,06,16,14.00
2020,08,02,06,17,14.00
2020,08,02,06,18,14.00
2020,08,02,06,19,14.00
2020,08,02,06,20,14.00
2020,08,02,06,21,15.10
2020,08,02,06,22,16.00
2020,08,02,06,23,17.60
2020,08,02,06,24,18.00
2020,08,02,06,25,18.00
2020,08,02,06,26,18.00
2020,08,02,06,27,18.00
2020,08,02,06,28,18.00
2020,08,02,06,29,18.60
2020,08,02,06,30,19.00
2020,08,02,06,31,19.00
2020,08,02,06,32,19.00
2020,08,02,06,33,19.00
2020,08,02,06,34,19.70
2020,08,02,06,35,21.00
2020,08,02,06,36,21.00
2020,08,02,06,37,22.60
2020,08,02,06,38,27.20
2020,08,02,06,39,42.40
2020,08,02,06,40,57.00
2020,08,02,06,41,62.80
2020,08,02,06,42,71.50
2020,08,02,06,43,76.70
2020,08,02,06,44,78.50
2020,08,02,06,45,80.90
2020,08,02,06,46,83.10
2020,08,02,06,47,84.50
2020,08,02,06,48,86.70
2020,08,02,06,49,89.00
2020,08,02,06,50,90.70
2020,08,02,06,51,92.50
2020,08,02,06,52,94.90
2020,08,02,06,53,97.20
2020,08,02,06,54,98.00
2020,08,02,06,55,98.80
2020,08,02,06,56,102.00
2020,08,02,06,57,104.60
2020,08,02,06,58,106.50
2020,08,02,06,59,108.80
2020,08,02,07,00,111.30
2020,08,02,07,01,113.30
2020,08,02,07,02,114.80
2020,08,02,07,03,117.00
2020,08,02,07,04,119.30
2020,08,02,07,05,120.80
2020,08,02,07,06,122.80
2020,08,02,07,07,125.30
2020,08,02,07,08,127.30
2020,08,02,07,09,128.80
2020,08,02,07,10,131.10
2020,08,02,07,11,133.30
2020,08,02,07,12,134.80
2020,08,02,07,13,136.80
2020,08,02,07,14,139.30
2020,08,02,07,15,141.30
2020,08,02,07,16,142.80
2020,08,02,07,17,145.00
2020,08,02,07,18,147.90
2020,08,02,07,19,150.50
2020,08,02,07,20,154.60
2020,08,02,07,21,156.30
2020,08,02,07,22,159.20
2020,08,02,07,23,162.00
2020,08,02,07,24,163.50
2020,08,02,07,25,166.30
2020,08,02,07,26,168.60
2020,08,02,07,27,170.80
2020,08,02,07,28,172.30
2020,08,02,07,29,174.50
2020,08,02,07,30,176.80
2020,08,02,07,31,179.60
2020,08,02,07,32,182.30
2020,08,02,07,33,184.60
2020,08,02,07,34,186.00
2020,08,02,07,35,188.30
2020,08,02,07,36,190.50
2020,08,02,07,37,193.20
2020,08,02,07,38,196.00
2020,08,02,07,39,198.30
2020,08,02,07,40,201.40
2020,08,02,07,41,203.90
2020,08,02,07,42,206.40
2020,08,02,07,43,209.50
2020,08,02,07,44,211.80
2020,08,02,07,45,214.50
2020,08,02,07,46,217.30
2020,08,02,07,47,219.60
2020,08,02,07,48,222.90
2020,08,02,07,49,227.30
2020,08,02,07,50,229.80
2020,08,02,07,51,233.60
2020,08,02,07,52,237.60
2020,08,02,07,53,241.60
2020,08,02,07,54,245.20
2020,08,02,07,55,250.80
2020,08,02,07,56,257.50
2020,08,02,07,57,263.80
2020,08,02,07,58,271.80
2020,08,02,07,59,278.50
2020,08,02,08,00,285.50
2020,08,02,08,01,292.70
2020,08,02,08,02,300.50
2020,08,02,08,03,304.60
2020,08,02,08,04,308.80
2020,08,02,08,05,311.80
2020,08,02,08,06,314.00
2020,08,02,08,07,316.90
2020,08,02,08,08,319.50
2020,08,02,08,09,322.70
2020,08,02,08,10,325.60
2020,08,02,08,11,330.20
2020,08,02,08,12,335.60
2020,08,02,08,13,341.50
2020,08,02,08,14,348.20
2020,08,02,08,15,355.20
2020,08,02,08,16,363.30
2020,08,02,08,17,372.00
2020,08,02,08,18,379.80
2020,08,02,08,19,387.00
2020,08,02,08,20,393.00
2020,08,02,08,21,400.50
2020,08,02,08,22,409.00
2020,08,02,08,23,419.10
2020,08,02,08,24,434.00
2020,08,02,08,25,447.60
2020,08,02,08,26,459.40
2020,08,02,08,27,470.50
2020,08,02,08,28,480.20
2020,08,02,08,29,488.50
2020,08,02,08,30,493.50
2020,08,02,08,31,496.40
2020,08,02,08,32,497.80
2020,08,02,08,33,496.80
2020,08,02,08,34,502.10
2020,08,02,08,35,504.90
2020,08,02,08,36,506.00
2020,08,02,08,37,320.80
2020,08,02,08,38,329.00
2020,08,02,08,39,329.00
2020,08,02,08,40,343.00
2020,08,02,08,41,401.40
2020,08,02,08,42,432.00
2020,08,02,08,43,432.00
2020,08,02,08,44,362.70
2020,08,02,08,45,389.20
2020,08,02,08,46,327.20
2020,08,02,08,47,274.00
2020,08,02,08,48,356.50
2020,08,02,08,49,420.10
2020,08,02,08,50,418.00
2020,08,02,08,51,418.00
2020,08,02,08,52,417.20
2020,08,02,08,53,413.00
2020,08,02,08,54,405.40
2020,08,02,08,55,390.70
2020,08,02,08,56,387.40
2020,08,02,08,57,387.00
2020,08,02,08,58,390.50
2020,08,02,08,59,404.60
2020,08,02,09,00,396.20
2020,08,02,09,01,396.00
2020,08,02,09,02,395.50
2020,08,02,09,03,403.70
2020,08,02,09,04,408.50
2020,08,02,09,05,423.30
2020,08,02,09,06,431.90
2020,08,02,09,07,423.60
2020,08,02,09,08,434.80
2020,08,02,09,09,447.00
2020,08,02,09,10,450.50
2020,08,02,09,11,451.20
2020,08,02,09,12,456.80
2020,08,02,09,13,462.20
2020,08,02,09,14,465.00
2020,08,02,09,15,468.40
2020,08,02,09,16,470.00
2020,08,02,09,17,474.20
2020,08,02,09,18,477.50
2020,08,02,09,19,481.60
2020,08,02,09,20,487.50
2020,08,02,09,21,491.20
2020,08,02,09,22,496.00
2020,08,02,09,23,501.80
2020,08,02,09,24,509.20
2020,08,02,09,25,516.00
2020,08,02,09,26,524.80
2020,08,02,09,27,512.40
2020,08,02,09,28,448.00
2020,08,02,09,29,448.00
2020,08,02,09,30,475.50
2020,08,02,09,31,456.20
2020,08,02,09,32,431.00
2020,08,02,09,33,431.00
2020,08,02,09,34,443.60
2020,08,02,09,35,516.60
2020,08,02,09,36,537.20
2020,08,02,09,37,561.00
2020,08,02,09,38,557.40
2020,08,02,09,39,556.70
2020,08,02,09,40,555.00
2020,08,02,09,41,555.00
2020,08,02,09,42,550.00
2020,08,02,09,43,556.00
2020,08,02,09,44,589.00
2020,08,02,09,45,589.00
2020,08,02,09,46,585.00
2020,08,02,09,47,584.00
2020,08,02,09,48,586.10
2020,08,02,09,49,600.00
2020,08,02,09,50,585.80
2020,08,02,09,51,567.00
2020,08,02,09,52,541.00
2020,08,02,09,53,559.80
2020,08,02,09,54,583.30
2020,08,02,09,55,546.30
2020,08,02,09,56,581.80
2020,08,02,09,57,546.80
2020,08,02,09,58,566.50
2020,08,02,09,59,597.20
2020,08,02,10,00,592.70
2020,08,02,10,01,537.00
2020,08,02,10,02,461.40
2020,08,02,10,03,418.00
2020,08,02,10,04,458.40
2020,08,02,10,05,501.00
2020,08,02,10,06,429.70
2020,08,02,10,07,454.70
2020,08,02,10,08,477.10
2020,08,02,10,09,504.00
2020,08,02,10,10,534.50
2020,08,02,10,11,616.00
2020,08,02,10,12,594.00
2020,08,02,10,13,587.00
2020,08,02,10,14,587.00
2020,08,02,10,15,400.70
2020,08,02,10,16,457.60
2020,08,02,10,17,457.00
2020,08,02,10,18,450.30
2020,08,02,10,19,464.50
2020,08,02,10,20,459.20
2020,08,02,10,21,454.00
2020,08,02,10,22,336.00
2020,08,02,10,23,337.40
2020,08,02,10,24,343.60
2020,08,02,10,25,337.80
2020,08,02,10,26,333.60
2020,08,02,10,27,362.00
2020,08,02,10,28,497.20
2020,08,02,10,29,529.20
2020,08,02,10,30,593.20
2020,08,02,10,31,510.50
2020,08,02,10,32,464.00
2020,08,02,10,33,566.10
2020,08,02,10,34,598.50
2020,08,02,10,35,551.00
2020,08,02,10,36,554.20
2020,08,02,10,37,561.00
2020,08,02,10,38,561.00
2020,08,02,10,39,561.00
2020,08,02,10,40,504.50
2020,08,02,10,41,428.50
2020,08,02,10,42,452.50
2020,08,02,10,43,472.10
2020,08,02,10,44,473.00
2020,08,02,10,45,473.00
2020,08,02,10,46,492.60
2020,08,02,10,47,522.00
2020,08,02,10,48,644.20
2020,08,02,10,49,762.50
2020,08,02,10,50,731.40
2020,08,02,10,51,691.00
2020,08,02,10,52,691.00
2020,08,02,10,53,573.00
2020,08,02,10,54,359.70
2020,08,02,10,55,330.00
2020,08,02,10,56,451.50
2020,08,02,10,57,492.00
2020,08,02,10,58,428.60
2020,08,02,10,59,489.00
2020,08,02,11,00,519.00
2020,08,02,11,01,557.40
2020,08,02,11,02,586.50
2020,08,02,11,03,678.40
2020,08,02,11,04,655.00
2020,08,02,11,05,650.00
2020,08,02,11,06,650.00
2020,08,02,11,07,603.20
2020,08,02,11,08,555.00
2020,08,02,11,09,636.40
2020,08,02,11,10,624.20
2020,08,02,11,11,626.40
2020,08,02,11,12,687.00
2020,08,02,11,13,660.00
2020,08,02,11,14,566.20
2020,08,02,11,15,583.90
2020,08,02,11,16,603.00
2020,08,02,11,17,635.00
2020,08,02,11,18,643.00
2020,08,02,11,19,428.70
2020,08,02,11,20,457.00
2020,08,02,11,21,541.60
2020,08,02,11,22,723.00
2020,08,02,11,23,732.30
2020,08,02,11,24,695.50
2020,08,02,11,25,689.00
2020,08,02,11,26,529.00
2020,08,02,11,27,573.40
2020,08,02,11,28,705.20
2020,08,02,11,29,732.50
2020,08,02,11,30,769.90
2020,08,02,11,31,796.00
2020,08,02,11,32,814.00
2020,08,02,11,33,822.00
2020,08,02,11,34,820.80
2020,08,02,11,35,827.80
2020,08,02,11,36,818.00
2020,08,02,11,37,830.70
2020,08,02,11,38,837.00
2020,08,02,11,39,653.70
2020,08,02,11,40,552.00
2020,08,02,11,41,541.00
2020,08,02,11,42,579.80
2020,08,02,11,43,608.00
2020,08,02,11,44,529.90
2020,08,02,11,45,536.20
2020,08,02,11,46,630.60
2020,08,02,11,47,587.00
2020,08,02,11,48,626.00
2020,08,02,11,49,717.00
2020,08,02,11,50,770.30
2020,08,02,11,51,853.00
2020,08,02,11,52,874.00
2020,08,02,11,53,696.70
2020,08,02,11,54,642.00
2020,08,02,11,55,686.80
2020,08,02,11,56,821.00
2020,08,02,11,57,821.00
2020,08,02,11,58,552.60
2020,08,02,11,59,396.00
2020,08,02,12,00,605.70
2020,08,02,12,01,645.20
2020,08,02,12,02,737.00
2020,08,02,12,03,737.00
2020,08,02,12,04,737.00
2020,08,02,12,05,737.00
2020,08,02,12,06,804.20
2020,08,02,12,07,830.00
2020,08,02,12,08,856.10
2020,08,02,12,09,860.80
2020,08,02,12,10,847.60
2020,08,02,12,11,860.90
2020,08,02,12,12,858.90
2020,08,02,12,13,851.80
2020,08,02,12,14,852.80
2020,08,02,12,15,849.00
2020,08,02,12,16,849.50
2020,08,02,12,17,851.70
2020,08,02,12,18,853.50
2020,08,02,12,19,847.50
2020,08,02,12,20,786.40
2020,08,02,12,21,853.90
2020,08,02,12,22,856.00
2020,08,02,12,23,858.20
2020,08,02,12,24,865.80
2020,08,02,12,25,866.00
2020,08,02,12,26,821.50
2020,08,02,12,27,869.20
2020,08,02,12,28,893.00
2020,08,02,12,29,885.70
2020,08,02,12,30,836.50
2020,08,02,12,31,843.80
2020,08,02,12,32,881.00
2020,08,02,12,33,881.00
2020,08,02,12,34,861.70
2020,08,02,12,35,890.80
2020,08,02,12,36,876.80
2020,08,02,12,37,817.00
2020,08,02,12,38,817.00
2020,08,02,12,39,915.10
2020,08,02,12,40,1005.00
2020,08,02,12,41,815.20
2020,08,02,12,42,752.00
2020,08,02,12,43,752.00
2020,08,02,12,44,752.00
2020,08,02,12,45,752.00
2020,08,02,12,46,769.00
2020,08,02,12,47,786.00
2020,08,02,12,48,455.20
2020,08,02,12,49,367.00
2020,08,02,12,50,567.70
2020,08,02,12,51,528.70
2020,08,02,12,52,563.00
2020,08,02,12,53,563.00
2020,08,02,12,54,563.00
2020,08,02,12,55,563.00
2020,08,02,12,56,563.00
2020,08,02,12,57,563.00
2020,08,02,12,58,563.00
2020,08,02,12,59,563.00
2020,08,02,13,00,563.00
2020,08,02,13,01,563.00
2020,08,02,13,02,563.00
2020,08,02,13,03,563.00
2020,08,02,13,04,563.00
2020,08,02,13,05,563.00
2020,08,02,13,06,668.50
2020,08,02,13,07,829.50
2020,08,02,13,08,862.00
2020,08,02,13,09,887.00
2020,08,02,13,10,878.10
2020,08,02,13,11,864.20
2020,08,02,13,12,867.80
2020,08,02,13,13,854.60
2020,08,02,13,14,757.00
2020,08,02,13,15,677.00
2020,08,02,13,16,657.00
2020,08,02,13,17,892.80
2020,08,02,13,18,923.30
2020,08,02,13,19,918.60
2020,08,02,13,20,920.00
2020,08,02,13,21,912.70
2020,08,02,13,22,923.50
2020,08,02,13,23,926.00
2020,08,02,13,24,954.60
2020,08,02,13,25,935.70
2020,08,02,13,26,955.00
2020,08,02,13,27,955.30
2020,08,02,13,28,954.70
2020,08,02,13,29,965.60
2020,08,02,13,30,974.50
2020,08,02,13,31,976.90
2020,08,02,13,32,980.20
2020,08,02,13,33,871.50
2020,08,02,13,34,802.00
2020,08,02,13,35,802.00
2020,08,02,13,36,802.00
2020,08,02,13,37,802.00
2020,08,02,13,38,802.00
2020,08,02,13,39,802.00
2020,08,02,13,40,748.60
2020,08,02,13,41,616.60
2020,08,02,13,42,631.00
2020,08,02,13,43,642.00
2020,08,02,13,44,781.70
2020,08,02,13,45,883.80
2020,08,02,13,46,884.00
2020,08,02,13,47,884.00
2020,08,02,13,48,882.20
2020,08,02,13,49,849.70
2020,08,02,13,50,823.00
2020,08,02,13,51,934.80
2020,08,02,13,52,981.90
2020,08,02,13,53,983.00
2020,08,02,13,54,983.00
2020,08,02,13,55,1071.40
2020,08,02,13,56,1189.00
2020,08,02,13,57,1174.00
2020,08,02,13,58,1174.00
2020,08,02,13,59,622.30
2020,08,02,14,00,595.20
2020,08,02,14,01,789.00
2020,08,02,14,02,789.00
2020,08,02,14,03,789.00
2020,08,02,14,04,789.00
2020,08,02,14,05,789.00
2020,08,02,14,06,1206.10
2020,08,02,14,07,1250.00
2020,08,02,14,08,1093.50
2020,08,02,14,09,598.00
2020,08,02,14,10,539.50
2020,08,02,14,11,493.60
2020,08,02,14,12,460.20
2020,08,02,14,13,446.90
2020,08,02,14,14,429.00
2020,08,02,14,15,391.40
2020,08,02,14,16,357.80
2020,08,02,14,17,330.50
2020,08,02,14,18,310.40
2020,08,02,14,19,297.10
2020,08,02,14,20,290.50
2020,08,02,14,21,286.40
2020,08,02,14,22,282.00
2020,08,02,14,23,277.00
2020,08,02,14,24,273.00
2020,08,02,14,25,272.00
2020,08,02,14,26,273.50
2020,08,02,14,27,275.80
2020,08,02,14,28,279.30
2020,08,02,14,29,282.80
2020,08,02,14,30,288.80
2020,08,02,14,31,293.50
2020,08,02,14,32,297.00
2020,08,02,14,33,298.50
2020,08,02,14,34,300.80
2020,08,02,14,35,303.10
2020,08,02,14,36,318.50
2020,08,02,14,37,336.20
2020,08,02,14,38,362.90
2020,08,02,14,39,379.90
2020,08,02,14,40,397.40
2020,08,02,14,41,414.20
2020,08,02,14,42,429.50
2020,08,02,14,43,455.60
2020,08,02,14,44,484.20
2020,08,02,14,45,492.60
2020,08,02,14,46,497.50
2020,08,02,14,47,490.90
2020,08,02,14,48,485.70
2020,08,02,14,49,494.90
2020,08,02,14,50,501.00
2020,08,02,14,51,501.00
2020,08,02,14,52,477.00
2020,08,02,14,53,442.60
2020,08,02,14,54,433.00
2020,08,02,14,55,413.00
2020,08,02,14,56,409.00
2020,08,02,14,57,403.00
2020,08,02,14,58,402.20
2020,08,02,14,59,398.20
2020,08,02,15,00,392.20
2020,08,02,15,01,388.50
2020,08,02,15,02,388.00
2020,08,02,15,03,386.80
2020,08,02,15,04,384.00
2020,08,02,15,05,380.60
2020,08,02,15,06,379.00
2020,08,02,15,07,379.30
2020,08,02,15,08,380.80
2020,08,02,15,09,381.00
2020,08,02,15,10,383.60
2020,08,02,15,11,387.80
2020,08,02,15,12,390.80
2020,08,02,15,13,394.60
2020,08,02,15,14,399.60
2020,08,02,15,15,402.60
2020,08,02,15,16,403.90
2020,08,02,15,17,409.40
2020,08,02,15,18,424.80
2020,08,02,15,19,446.90
2020,08,02,15,20,494.40
2020,08,02,15,21,511.80
2020,08,02,15,22,501.60
2020,08,02,15,23,530.00
2020,08,02,15,24,536.80
2020,08,02,15,25,528.90
2020,08,02,15,26,552.00
2020,08,02,15,27,552.00
2020,08,02,15,28,578.00
2020,08,02,15,29,592.00
2020,08,02,15,30,592.00
2020,08,02,15,31,661.70
2020,08,02,15,32,644.80
2020,08,02,15,33,645.00
2020,08,02,15,34,687.00
2020,08,02,15,35,687.00
2020,08,02,15,36,887.00
2020,08,02,15,37,919.90
2020,08,02,15,38,886.00
2020,08,02,15,39,886.00
2020,08,02,15,40,886.00
2020,08,02,15,41,886.00
2020,08,02,15,42,886.00
2020,08,02,15,43,886.00
2020,08,02,15,44,743.80
2020,08,02,15,45,728.00
2020,08,02,15,46,728.00
2020,08,02,15,47,681.60
2020,08,02,15,48,581.80
2020,08,02,15,49,585.00
2020,08,02,15,50,600.50
2020,08,02,15,51,601.00
2020,08,02,15,52,993.00
2020,08,02,15,53,909.00
2020,08,02,15,54,657.00
2020,08,02,15,55,657.00
2020,08,02,15,56,657.00
2020,08,02,15,57,657.00
2020,08,02,15,58,871.50
2020,08,02,15,59,905.10
2020,08,02,16,00,988.20
2020,08,02,16,01,991.40
2020,08,02,16,02,945.50
2020,08,02,16,03,876.40
2020,08,02,16,04,907.50
2020,08,02,16,05,937.40
2020,08,02,16,06,923.90
2020,08,02,16,07,910.60
2020,08,02,16,08,902.60
2020,08,02,16,09,892.50
2020,08,02,16,10,887.00
2020,08,02,16,11,815.10
2020,08,02,16,12,793.00
2020,08,02,16,13,758.20
2020,08,02,16,14,561.00
2020,08,02,16,15,561.00
2020,08,02,16,16,561.00
2020,08,02,16,17,561.00
2020,08,02,16,18,561.00
2020,08,02,16,19,700.60
2020,08,02,16,20,720.80
2020,08,02,16,21,744.60
2020,08,02,16,22,751.00
2020,08,02,16,23,520.50
2020,08,02,16,24,336.50
2020,08,02,16,25,352.50
2020,08,02,16,26,407.40
2020,08,02,16,27,461.00
2020,08,02,16,28,461.00
2020,08,02,16,29,551.40
2020,08,02,16,30,712.50
2020,08,02,16,31,740.00
2020,08,02,16,32,830.80
2020,08,02,16,33,845.70
2020,08,02,16,34,830.00
2020,08,02,16,35,813.80
2020,08,02,16,36,765.00
2020,08,02,16,37,765.00
2020,08,02,16,38,765.00
2020,08,02,16,39,645.00
2020,08,02,16,40,605.00
2020,08,02,16,41,599.90
2020,08,02,16,42,591.80
2020,08,02,16,43,654.00
2020,08,02,16,44,431.80
2020,08,02,16,45,224.60
2020,08,02,16,46,197.50
2020,08,02,16,47,190.40
2020,08,02,16,48,192.80
2020,08,02,16,49,200.00
2020,08,02,16,50,215.00
2020,08,02,16,51,230.10
2020,08,02,16,52,241.50
2020,08,02,16,53,247.00
2020,08,02,16,54,249.70
2020,08,02,16,55,248.00
2020,08,02,16,56,247.00
2020,08,02,16,57,242.10
2020,08,02,16,58,237.40
2020,08,02,16,59,234.70
2020,08,02,17,00,232.50
2020,08,02,17,01,229.30
2020,08,02,17,02,222.50
2020,08,02,17,03,216.80
2020,08,02,17,04,211.60
2020,08,02,17,05,206.50
2020,08,02,17,06,200.80
2020,08,02,17,07,194.20
2020,08,02,17,08,188.50